When you browse on this site, cookies collect data to enhance your experience and personalize the content and advertising you see.
Visit our Privacy Policy to learn more. By continuing to use the site, you agree to this use of cookies and data.
  • In Latvia
  • List of Countries
  • For 7 days
  • Water Temperature
  • Satellite Maps
  • Weather Map
  • Weather Widgets
  • user-avatar
    Login

    Hourly Weather Wien

    Today, 18 July, Thursday

    Time Temperature Precipitation Wind Pressure Humidity
    00:00 +19°C° 0.3 mm 1 mps 741 mmHg 78%
    01:00 +19°C° 0 mm 1 mps 741 mmHg 79%
    02:00 +18°C° 0.3 mm 1 mps 741 mmHg 81%
    03:00 +18°C° 0.3 mm 1 mps 740 mmHg 83%
    04:00 +16°C° 0.3 mm 1 mps 740 mmHg 85%
    05:00 +18°C° 0.1 mm 1 mps 740 mmHg 81%
    06:00 +19°C° 0.1 mm 1 mps 741 mmHg 78%
    07:00 +20°C° 0 mm 1 mps 741 mmHg 67%
    08:00 +22°C° 0.2 mm 1 mps 741 mmHg 63%
    09:00 +22°C° 0.2 mm 0 mps 741 mmHg 58%
    10:00 +24°C° 0.2 mm 0 mps 741 mmHg 53%
    11:00 +27°C° 0.1 mm 1 mps 741 mmHg 47%
    12:00 +28°C° 0.1 mm 1 mps 741 mmHg 41%
    13:00 +29°C° 0.1 mm 1 mps 741 mmHg 35%
    14:00 +29°C° 0 mm 1 mps 741 mmHg 35%
    15:00 +29°C° 0 mm 2 mps 741 mmHg 35%
    16:00 +29°C° 0 mm 2 mps 741 mmHg 35%
    17:00 +28°C° 0 mm 2 mps 741 mmHg 40%
    18:00 +27°C° 0 mm 1 mps 741 mmHg 45%
    19:00 +25°C° 0 mm 1 mps 741 mmHg 49%
    20:00 +25°C° 0 mm 1 mps 741 mmHg 51%
    21:00 +24°C° 0 mm 1 mps 742 mmHg 52%
    22:00 +23°C° 0 mm 1 mps 742 mmHg 54%
    23:00 +22°C° 0 mm 1 mps 742 mmHg 55%

    Tomorrow, 19 July, Friday

    Time Temperature Precipitation Wind Pressure Humidity
    00:00 +22°C° 0 mm 1 mps 743 mmHg 57%
    01:00 +21°C° 0 mm 1 mps 743 mmHg 59%
    02:00 +21°C° 0 mm 1 mps 743 mmHg 61%
    03:00 +20°C° 0 mm 1 mps 743 mmHg 63%
    04:00 +20°C° 0 mm 1 mps 743 mmHg 65%
    05:00 +21°C° 0 mm 1 mps 743 mmHg 63%
    06:00 +22°C° 0 mm 1 mps 743 mmHg 61%
    07:00 +23°C° 0 mm 1 mps 743 mmHg 58%
    08:00 +25°C° 0 mm 1 mps 744 mmHg 53%
    09:00 +26°C° 0 mm 1 mps 744 mmHg 47%
    10:00 +28°C° 0 mm 2 mps 744 mmHg 42%
    11:00 +29°C° 0 mm 2 mps 744 mmHg 39%
    12:00 +30°C° 0 mm 2 mps 743 mmHg 36%
    13:00 +30°C° 0 mm 2 mps 743 mmHg 33%
    14:00 +30°C° 0 mm 2 mps 743 mmHg 34%
    15:00 +30°C° 0 mm 1 mps 743 mmHg 35%
    16:00 +30°C° 0 mm 1 mps 743 mmHg 35%
    17:00 +29°C° 0 mm 1 mps 743 mmHg 41%
    18:00 +28°C° 0 mm 1 mps 743 mmHg 46%
    19:00 +26°C° 0 mm 1 mps 743 mmHg 52%
    20:00 +25°C° 0 mm 1 mps 743 mmHg 55%
    21:00 +24°C° 0 mm 1 mps 744 mmHg 58%
    22:00 +23°C° 0 mm 1 mps 744 mmHg 62%
    23:00 +22°C° 0 mm 1 mps 744 mmHg 64%

    Day after tomorrow, 20 July, Saturday

    Time Temperature Precipitation Wind Pressure Humidity
    00:00 +22°C° 0 mm 1 mps 744 mmHg 67%
    01:00 +21°C° 0 mm 1 mps 744 mmHg 69%
    02:00 +21°C° 0 mm 1 mps 744 mmHg 70%
    03:00 +21°C° 0 mm 1 mps 744 mmHg 71%
    04:00 +20°C° 0 mm 1 mps 744 mmHg 72%
    05:00 +21°C° 0 mm 1 mps 744 mmHg 68%
    06:00 +23°C° 0 mm 1 mps 744 mmHg 65%
    07:00 +22°C° 0 mm 0 mps 745 mmHg 62%
    08:00 +25°C° 0 mm 1 mps 745 mmHg 57%
    09:00 +27°C° 0 mm 1 mps 745 mmHg 52%
    10:00 +29°C° 0 mm 2 mps 745 mmHg 47%
    11:00 +30°C° 0 mm 2 mps 745 mmHg 44%
    12:00 +31°C° 0 mm 3 mps 745 mmHg 40%
    13:00 +33°C° 0 mm 3 mps 744 mmHg 37%
    14:00 +34°C° 0 mm 3 mps 744 mmHg 35%
    15:00 +34°C° 0 mm 3 mps 744 mmHg 34%
    16:00 +35°C° 0 mm 3 mps 744 mmHg 33%
    17:00 +33°C° 0 mm 3 mps 744 mmHg 38%
    18:00 +31°C° 0 mm 3 mps 744 mmHg 43%
    19:00 +29°C° 0 mm 3 mps 744 mmHg 48%
    20:00 +28°C° 0 mm 2 mps 744 mmHg 52%
    21:00 +27°C° 0 mm 2 mps 745 mmHg 56%
    22:00 +26°C° 0 mm 2 mps 745 mmHg 59%
    23:00 +25°C° 0 mm 2 mps 745 mmHg 62%

    21 July, Sunday

    Time Temperature Precipitation Wind Pressure Humidity
    00:00 +25°C° 0 mm 1 mps 745 mmHg 64%
    01:00 +24°C° 0 mm 1 mps 745 mmHg 67%
    02:00 +23°C° 0 mm 1 mps 745 mmHg 68%
    03:00 +23°C° 0 mm 1 mps 745 mmHg 70%
    04:00 +20°C° 0 mm 0 mps 745 mmHg 72%
    05:00 +22°C° 0 mm 0 mps 745 mmHg 67%
    06:00 +23°C° 0 mm 0 mps 746 mmHg 63%
    07:00 +25°C° 0 mm 0 mps 746 mmHg 59%
    08:00 +27°C° 0 mm 0 mps 746 mmHg 52%
    09:00 +29°C° 0 mm 0 mps 746 mmHg 46%
    10:00 +33°C° 0 mm 1 mps 747 mmHg 39%
    11:00 +32°C° 0 mm 1 mps 747 mmHg 40%
    12:00 +32°C° 0 mm 2 mps 746 mmHg 40%
    13:00 +32°C° 0 mm 2 mps 746 mmHg 40%
    14:00 +33°C° 0 mm 3 mps 746 mmHg 40%
    15:00 +33°C° 0 mm 3 mps 746 mmHg 39%
    16:00 +34°C° 0 mm 4 mps 747 mmHg 39%
    17:00 +31°C° 0.1 mm 3 mps 747 mmHg 45%
    18:00 +30°C° 0.1 mm 3 mps 747 mmHg 51%
    19:00 +29°C° 0.1 mm 3 mps 747 mmHg 58%
    20:00 +28°C° 0.1 mm 3 mps 747 mmHg 62%
    21:00 +27°C° 0.1 mm 3 mps 748 mmHg 66%
    22:00 +25°C° 0.1 mm 3 mps 748 mmHg 70%
    23:00 +25°C° 0 mm 3 mps 748 mmHg 71%

    22 July, Monday

    Time Temperature Precipitation Wind Pressure Humidity
    00:00 +24°C° 0 mm 3 mps 748 mmHg 72%
    01:00 +24°C° 0 mm 2 mps 748 mmHg 74%
    02:00 +23°C° 0 mm 2 mps 748 mmHg 75%
    03:00 +23°C° 0 mm 2 mps 748 mmHg 77%
    04:00 +21°C° 0 mm 2 mps 748 mmHg 79%
    05:00 +23°C° 0 mm 2 mps 749 mmHg 74%
    06:00 +24°C° 0 mm 2 mps 749 mmHg 70%
    07:00 +24°C° 0 mm 3 mps 749 mmHg 66%
    08:00 +26°C° 0 mm 3 mps 749 mmHg 58%
    09:00 +28°C° 0 mm 2 mps 750 mmHg 51%
    10:00 +29°C° 0 mm 2 mps 750 mmHg 43%
    11:00 +30°C° 0 mm 3 mps 749 mmHg 40%
    12:00 +31°C° 0 mm 3 mps 749 mmHg 37%
    13:00 +33°C° 0 mm 3 mps 749 mmHg 34%
    14:00 +33°C° 0 mm 3 mps 749 mmHg 34%
    15:00 +33°C° 0 mm 3 mps 749 mmHg 34%
    16:00 +33°C° 0 mm 4 mps 748 mmHg 33%
    17:00 +30°C° 0 mm 3 mps 748 mmHg 39%
    18:00 +29°C° 0 mm 3 mps 749 mmHg 44%
    19:00 +28°C° 0 mm 2 mps 749 mmHg 49%
    20:00 +26°C° 0 mm 2 mps 749 mmHg 53%
    21:00 +25°C° 0 mm 2 mps 749 mmHg 57%
    22:00 +24°C° 0 mm 1 mps 749 mmHg 60%
    23:00 +23°C° 0 mm 1 mps 749 mmHg 62%

    23 July, Tuesday

    Time Temperature Precipitation Wind Pressure Humidity
    00:00 +23°C° 0 mm 1 mps 749 mmHg 63%
    01:00 +22°C° 0 mm 1 mps 749 mmHg 65%
    02:00 +22°C° 0 mm 1 mps 749 mmHg 67%
    03:00 +21°C° 0 mm 1 mps 749 mmHg 69%
    04:00 +21°C° 0 mm 1 mps 748 mmHg 71%
    05:00 +21°C° 0 mm 2 mps 749 mmHg 67%
    06:00 +23°C° 0 mm 2 mps 749 mmHg 63%
    07:00 +24°C° 0 mm 2 mps 749 mmHg 59%
    08:00 +25°C° 0 mm 2 mps 749 mmHg 54%
    09:00 +26°C° 0 mm 2 mps 749 mmHg 49%
    10:00 +28°C° 0 mm 3 mps 749 mmHg 43%
    11:00 +29°C° 0 mm 3 mps 748 mmHg 40%
    12:00 +30°C° 0 mm 3 mps 748 mmHg 37%
    13:00 +31°C° 0 mm 3 mps 747 mmHg 34%
    14:00 +31°C° 0 mm 3 mps 747 mmHg 34%
    15:00 +31°C° 0 mm 3 mps 747 mmHg 35%
    16:00 +31°C° 0 mm 3 mps 746 mmHg 36%
    17:00 +30°C° 0 mm 3 mps 746 mmHg 40%
    18:00 +28°C° 0 mm 3 mps 746 mmHg 45%
    19:00 +27°C° 0 mm 3 mps 746 mmHg 49%
    20:00 +26°C° 0 mm 2 mps 746 mmHg 52%
    21:00 +25°C° 0 mm 2 mps 747 mmHg 54%
    22:00 +23°C° 0 mm 1 mps 747 mmHg 57%
    23:00 +23°C° 0 mm 1 mps 747 mmHg 59%
    Show more